Location: La Vergne
(36.0160°N, 86.5820°W)
Time: 11:13:37
(UTC-05:00)

Spot 2 Rocket - Pass Details

Date: 24 September 2017
Orbit: 758 x 772 km, 98.7° (Epoch: 19 October)

Event Time Altitude Azimuth Distance (km) Brightness Sun altitude
Exits shadow 21:05:05 43° 230° (SW) 1,057 4.3 -29.5°
Maximum altitude 21:05:56 48° 260° (W) 992 4.3 -29.7°
Drops below altitude 10° 21:10:48 10° 334° (NNW) 2,293 6.5 -30.6°
Sets 21:13:12 0° 340° (NNW) 3,221 7.3 -31.0°
